[[{"header":{"parameterUnit":"m.s-1","parameterCategory":1,"la1":30.2991,"la2":30.254,"lo1":-89.0895,"lo2":-89.0444,"dy":0.0017,"dx":0.0017,"nx":28,"ny":28,"refTime":"2024-07-11T21:00:00:Z","depth":0,"parameterNumber":2,"parameterNumberName":"U-component_of_WINDS"},"data":[0,0,0,0,0,0,0,0,0,0,0,0,0,0,0,0,0,0,0,0,0,0,0,0,0,0,0,0,0,0,0,0,0,0,0,0,0,0,0,0,0,0,0,0,0,0,0,0,0,0,0,0,0,0,0,0,0,0,2.3976,2.3979,0,2.4274,2.4277,2.428,2.4396,2.4395,2.4394,2.4393,2.4697,2.4705,2.4714,0,0,0,0,0,0,0,0,0,0,0,0,0,2.35,2.3509,2.3975,2.3979,2.3983,2.4273,2.4277,2.4281,2.4396,2.4395,2.4394,2.4393,2.4694,2.4704,2.4715,0,0,0,0,0,0,0,0,0,0,0,0,0,2.3743,2.3511,2.3975,2.4075,2.4087,2.4272,2.4277,2.4282,2.4396,2.4395,2.4394,2.4392,2.469,2.4703,2.4716,2.4824,0,0,2.4757,2.4763,0,0,0,0,0,0,0,0,2.3729,2.3761,2.4057,2.4069,2.4082,2.4296,2.4221,2.4464,2.4396,2.4279,2.4393,2.4392,2.4564,2.4588,2.4647,2.4838,2.4851,2.4758,2.4766,2.4772,2.4776,0,0,0,0,0,0,0,2.3712,2.3748,2.4094,2.4061,2.4076,2.4103,2.4137,2.4268,2.4425,2.4289,2.4298,2.4332,2.4571,2.4634,2.4655,2.4855,2.4758,2.477,2.4778,2.4783,2.5144,2.5146,0,0,0,0,0,0,2.3679,2.3734,2.4084,2.4102,2.3899,2.4113,2.415,2.4229,2.4424,2.4452,2.4332,2.4336,2.4611,2.4639,2.4666,2.4802,2.4772,2.4784,2.4792,2.5142,2.5144,2.5146,0,0,0,0,0,0,2.3669,2.371,2.4072,2.3921,2.3969,2.4123,2.421,2.4235,2.4298,2.4457,2.4485,2.4368,2.4612,2.4647,2.4783,2.4814,2.479,2.4802,2.5141,2.5143,2.5145,2.5075,0,0,0,0,0,0,2.3655,2.3705,2.3749,2.3921,2.3976,2.4185,2.4212,2.4242,2.4321,2.4328,2.4497,2.4524,2.4613,2.4762,2.4796,2.4832,2.4813,2.5138,2.5142,2.5144,2.5075,2.5075,2.5074,0,0,0,0,0,2.3637,2.3718,2.3751,2.3792,2.4035,2.4187,2.4219,2.432,2.4323,2.4367,2.4468,2.4519,2.4804,2.4775,2.4814,2.4854,2.5137,2.5141,2.5144,2.5076,2.5075,2.5074,0,0,0,0,0,0,2.3548,2.3743,2.3781,2.392,2.4036,2.4206,2.4266,2.4317,2.4434,2.4436,2.4556,2.4594,2.4718,2.48,2.4764,2.4965,2.4974,2.4985,2.4908,2.4909,2.4909,2.4887,2.4824,0,0,0,0,0,2.3543,2.3652,2.3816,2.3923,2.3979,2.4111,2.4182,2.4249,2.4374,2.4424,2.4535,2.4653,2.4769,2.4844,2.496,2.5087,2.5124,2.5133,2.5132,2.5131,2.514,2.521,2.5215,2.5158,2.5158,2.5158,0,0,2.3537,2.3657,2.3719,2.3908,2.4006,2.4113,2.4152,2.4266,2.4346,2.4441,2.4576,2.466,2.48,2.493,2.4993,2.5002,2.5163,2.5136,2.5134,2.5144,2.5214,2.5219,2.5224,2.5161,2.516,2.516,0,0,2.3581,2.3683,2.3782,2.3878,2.4024,2.4111,2.4134,2.4296,2.4356,2.4492,2.4564,2.466,2.4859,2.4954,2.5028,2.51,2.515,2.5135,2.5133,2.5199,2.5204,2.5208,2.5232,2.524,2.5143,2.5142,2.5142,0,2.3555,2.3722,2.3826,2.3935,2.4014,2.4103,2.4202,2.4289,2.4466,2.4518,2.4524,2.4772,2.4873,2.5025,2.5042,2.51,2.5128,2.5117,2.5195,2.52,2.5206,2.523,2.5239,2.514,2.514,2.514,2.514,0,2.3681,2.3794,2.3856,2.4022,2.4109,2.4212,2.433,2.4404,2.4462,2.4547,2.4682,2.4804,2.4945,2.4985,2.5045,2.5145,2.5146,2.5172,2.5183,2.5207,2.5232,2.5242,2.5135,2.5136,2.5137,2.5138,0,0,2.3681,2.39,2.3921,2.3996,2.4161,2.425,2.4354,2.4491,2.4551,2.4668,2.4758,2.4921,2.4944,2.5028,2.5098,2.5156,2.5202,2.5175,2.518,2.5175,2.5318,2.5297,2.5306,2.5235,2.5237,2.5239,2.5305,0,2.3746,2.3939,2.4033,2.4184,2.4288,2.437,2.4461,2.457,2.4651,2.475,2.4838,2.4951,2.4975,2.5026,2.5087,2.5183,2.5232,2.518,2.5318,2.5322,2.5281,2.532,2.53,2.5357,2.5316,2.5318,2.5319,0,2.385,2.3964,2.4124,2.4273,2.432,2.44,2.453,2.4624,2.4748,2.4802,2.4893,2.496,2.507,2.5071,2.5223,2.5185,2.5246,2.5301,2.5306,2.5324,2.5323,2.5338,2.5378,2.5386,2.5336,2.5334,2.5333,0,2.3831,2.4026,2.4146,2.4207,2.4384,2.4438,2.4514,2.4637,2.4711,2.4824,2.4873,2.4997,2.5065,2.5159,2.5255,2.5248,2.5397,2.5407,2.5444,2.5441,2.5474,2.5471,2.5524,2.5512,2.5512,2.5512,2.5511,0,2.3895,2.3989,2.414,2.4214,2.432,2.4426,2.4528,2.461,2.4718,2.4807,2.4886,2.4968,2.5091,2.5187,2.5263,2.5376,2.5407,2.5452,2.5471,2.5446,2.544,2.5489,2.5487,2.5514,2.5514,2.5513,2.5513,0,2.3894,2.3999,2.4135,2.4289,2.433,2.4402,2.4533,2.4607,2.4689,2.4801,2.4833,2.4962,2.5079,2.5184,2.5341,2.5391,2.5506,2.553,2.5464,2.5475,2.5506,2.5501,2.5593,2.5609,2.5585,2.5585,2.5585,0,2.3928,2.4003,2.4163,2.4228,2.4302,2.4407,2.4482,2.4587,2.4662,2.4806,2.4861,2.4984,2.5088,2.527,2.5377,2.5496,2.5523,2.5547,2.5542,2.5512,2.5523,2.5517,2.5524,2.5546,2.5546,2.5546,2.5546,0,2.3977,2.4023,2.4129,2.4252,2.4339,2.4441,2.4545,2.4593,2.4717,2.4796,2.4917,2.4997,2.5154,2.5274,2.5403,2.548,2.5533,2.5546,2.5561,2.5536,2.5494,2.5516,2.5462,2.5544,2.5544,2.5544,2.5544,2.5545,2.3995,2.4063,2.4185,2.4299,2.4387,2.4481,2.4557,2.4647,2.4749,2.4885,2.494,2.5061,2.5179,2.5358,2.5433,2.5529,2.5539,2.5561,2.5566,2.557,2.5565,2.5477,2.5553,2.5553,2.5553,2.5553,2.5553,0,2.4046,2.4127,2.4231,2.4373,2.4461,2.4501,2.4617,2.4688,2.4794,2.4899,2.4998,2.5134,2.5249,2.5363,2.5484,2.5538,2.5565,2.5566,2.5564,2.558,2.5549,2.5524,2.5542,2.5542,2.5542,2.5542,2.5542,2.5542,2.4083,2.42,2.426,2.4419,2.4501,2.462,2.4682,2.4768,2.4852,2.5,2.5096,2.5168,2.5276,2.5405,2.5511,2.5541,2.5582,2.5576,2.5613,2.5583,2.5582,2.5582,2.5559,2.5584,2.5584,2.5636,2.5636,2.5637]},{"header":{"parameterUnit":"m.s-1","parameterCategory":1,"la1":30.2991,"la2":30.254,"lo1":-89.0895,"lo2":-89.0444,"dy":0.0017,"dx":0.0017,"nx":28,"ny":28,"refTime":"2024-07-11T21:00:00:Z","depth":0,"parameterNumber":3,"parameterNumberName":"V-component_of_WINDS"},"data":[0,0,0,0,0,0,0,0,0,0,0,0,0,0,0,0,0,0,0,0,0,0,0,0,0,0,0,0,0,0,0,0,0,0,0,0,0,0,0,0,0,0,0,0,0,0,0,0,0,0,0,0,0,0,0,0,0,0,0.8594,0.8594,0,0.8633,0.8633,0.8634,0.8622,0.8621,0.862,0.8619,0.8666,0.8668,0.867,0,0,0,0,0,0,0,0,0,0,0,0,0,0.8514,0.8515,0.8594,0.8594,0.8595,0.8633,0.8633,0.8634,0.8622,0.8621,0.862,0.8619,0.8665,0.8668,0.867,0,0,0,0,0,0,0,0,0,0,0,0,0,0.855,0.8516,0.8594,0.8593,0.8593,0.8633,0.8633,0.8634,0.8622,0.8621,0.8619,0.8618,0.8665,0.8667,0.8671,0.8715,0,0,0.868,0.8681,0,0,0,0,0,0,0,0,0.8548,0.8553,0.8593,0.8593,0.8594,0.8621,0.8622,0.8661,0.8622,0.8611,0.8619,0.8618,0.8652,0.8656,0.8667,0.8717,0.8719,0.868,0.8682,0.8683,0.8684,0,0,0,0,0,0,0,0.8546,0.8552,0.8609,0.8593,0.8594,0.8593,0.8596,0.863,0.8639,0.8612,0.8611,0.8616,0.8653,0.8664,0.8668,0.872,0.868,0.8683,0.8685,0.8686,0.8807,0.8808,0,0,0,0,0,0,0.8542,0.8549,0.8608,0.8611,0.8567,0.8595,0.8599,0.8614,0.8638,0.8641,0.8617,0.8615,0.8659,0.8664,0.8669,0.8722,0.8683,0.8686,0.8688,0.8806,0.8807,0.8809,0,0,0,0,0,0,0.854,0.8547,0.8607,0.858,0.8587,0.8598,0.8614,0.8615,0.8626,0.8642,0.8644,0.8626,0.8658,0.8665,0.8703,0.8724,0.8687,0.869,0.8804,0.8806,0.8808,0.8829,0,0,0,0,0,0,0.8538,0.8547,0.8563,0.858,0.8589,0.8638,0.8615,0.8617,0.8631,0.8629,0.8651,0.8654,0.8658,0.8698,0.8706,0.8727,0.8693,0.8802,0.8805,0.8807,0.8826,0.8831,0.8836,0,0,0,0,0,0.8535,0.8569,0.8564,0.8571,0.8609,0.8639,0.8644,0.8646,0.8633,0.8649,0.8659,0.8653,0.872,0.8702,0.8711,0.8733,0.8801,0.8804,0.8807,0.8824,0.883,0.8836,0,0,0,0,0,0,0.8557,0.8571,0.8566,0.8606,0.8621,0.8637,0.8659,0.8653,0.8675,0.8672,0.8676,0.8681,0.8719,0.873,0.871,0.8777,0.8759,0.8763,0.8769,0.8775,0.8779,0.8777,0.8695,0,0,0,0,0,0.8566,0.8588,0.86,0.8634,0.8642,0.8649,0.8662,0.8662,0.8679,0.8686,0.8699,0.8717,0.8742,0.8759,0.8783,0.8827,0.8832,0.8847,0.8851,0.8855,0.886,0.8884,0.889,0.8819,0.8819,0.8819,0,0,0.8586,0.8596,0.8611,0.8639,0.8651,0.8675,0.8655,0.8681,0.87,0.8691,0.8727,0.8736,0.8757,0.8798,0.8817,0.8808,0.888,0.8859,0.8862,0.8865,0.8887,0.8894,0.89,0.8821,0.8821,0.882,0,0,0.8634,0.8644,0.8673,0.8684,0.8701,0.8705,0.8712,0.8728,0.8733,0.8768,0.8762,0.8785,0.8828,0.8842,0.8855,0.8906,0.8902,0.8914,0.8939,0.8962,0.8967,0.8972,0.8991,0.8997,0.8918,0.8918,0.8918,0,0.8658,0.8692,0.8689,0.8716,0.8728,0.8718,0.8748,0.876,0.8785,0.8795,0.8784,0.8836,0.8849,0.8893,0.8905,0.8916,0.8924,0.8912,0.8966,0.8971,0.8976,0.8993,0.9,0.8919,0.8919,0.8919,0.8919,0,0.8719,0.8743,0.8765,0.8786,0.8801,0.8829,0.8832,0.8848,0.8845,0.885,0.8886,0.8901,0.8927,0.8937,0.8937,0.8981,0.8975,0.8965,0.8947,0.8984,0.9001,0.9007,0.8921,0.8921,0.8921,0.892,0,0,0.8786,0.8802,0.881,0.8819,0.8836,0.8855,0.8882,0.8905,0.8918,0.8935,0.8959,0.8994,0.8984,0.8999,0.9,0.902,0.9058,0.9007,0.9008,0.9017,0.9108,0.9115,0.9123,0.9054,0.9056,0.9057,0.9106,0,0.8836,0.8882,0.8879,0.8923,0.8945,0.8934,0.8958,0.8972,0.8977,0.8997,0.9003,0.9028,0.9013,0.9022,0.9041,0.905,0.9077,0.9046,0.9078,0.9079,0.9074,0.9132,0.9141,0.9187,0.9112,0.9114,0.9114,0,0.8901,0.8917,0.8962,0.8973,0.8983,0.9004,0.9024,0.9043,0.9058,0.906,0.9074,0.9071,0.91,0.9079,0.9119,0.9098,0.9111,0.9117,0.9119,0.9123,0.91,0.9139,0.9201,0.9208,0.9124,0.9124,0.9123,0,0.8945,0.8978,0.9009,0.9017,0.9031,0.9046,0.9053,0.9066,0.9079,0.9097,0.9105,0.9127,0.914,0.9157,0.916,0.9144,0.92,0.918,0.9204,0.9204,0.9218,0.9217,0.9284,0.9224,0.9224,0.9224,0.9224,0,0.9002,0.9031,0.9028,0.9048,0.9079,0.9075,0.9107,0.9113,0.9124,0.9145,0.9138,0.9158,0.9159,0.9181,0.9183,0.9216,0.9221,0.9225,0.9226,0.9226,0.9226,0.9236,0.9233,0.9226,0.9225,0.9225,0.9224,0,0.9058,0.9057,0.909,0.9099,0.9102,0.9125,0.9133,0.9152,0.9155,0.9182,0.9188,0.9193,0.9217,0.9221,0.925,0.9252,0.9291,0.9288,0.9285,0.9285,0.9309,0.9307,0.9386,0.9396,0.9329,0.9329,0.933,0,0.9095,0.9116,0.9126,0.9138,0.9145,0.9165,0.9177,0.9174,0.9188,0.9205,0.9222,0.9244,0.9262,0.9301,0.9309,0.9331,0.9329,0.9355,0.9333,0.9332,0.933,0.9329,0.9331,0.936,0.9361,0.9361,0.9362,0,0.9161,0.9158,0.9175,0.9192,0.9206,0.9219,0.9232,0.9243,0.9242,0.9257,0.928,0.9294,0.9322,0.9345,0.9366,0.9374,0.9369,0.9368,0.9375,0.9377,0.9375,0.9376,0.9298,0.9367,0.9367,0.9366,0.9366,0.9366,0.9209,0.9226,0.9235,0.9254,0.9262,0.9273,0.9291,0.9294,0.9313,0.9333,0.9331,0.9356,0.9369,0.9396,0.9406,0.9427,0.9419,0.9429,0.9431,0.9434,0.9436,0.937,0.9431,0.9431,0.943,0.943,0.943,0,0.9274,0.9279,0.9296,0.9312,0.9326,0.9316,0.9329,0.9342,0.9364,0.9375,0.9392,0.9418,0.9439,0.9447,0.9468,0.9483,0.9481,0.9489,0.9489,0.9491,0.9442,0.9434,0.949,0.949,0.949,0.949,0.949,0.949,0.931,0.9339,0.9337,0.937,0.9375,0.9397,0.9406,0.9416,0.9425,0.9453,0.947,0.9474,0.9484,0.9505,0.9524,0.9526,0.9535,0.9544,0.9545,0.95,0.9494,0.9488,0.9481,0.9546,0.9546,0.9591,0.9592,0.9592]}]]